FW1247 Weather Reports


time (UTC)temp
C
wind
direction
speed
KPH
gust
KPH
rain 1hr
cm
rain 24hr
cm
rain mn
cm
humidity
%
barometer
mb
20260831093009 18 140 11.3 20.9 0.00 0.05 0.05 89 1003.9
20260831091503 18 173 9.7 22.5 0.03 0.05 0.05 90 1004.0
20260831090002 18 158 11.3 22.5 0.05 0.05 0.05 91 1003.9
20260831084607 18 110 9.7 19.3 0.05 0.13 0.05 93 1004.1
20260831083059 17 161 8.0 16.1 0.05 0.13 0.05 93 1004.4
20260831081559 18 136 8.0 20.9 0.03 0.10 0.05 91 1004.6
20260831080058 18 171 12.9 22.5 0.00 0.08 0.03 90 1004.2
20260831074557 18 186 8.0 20.9 0.00 0.10 0.03 91 1004.0
20260831073108 18 152 8.0 22.5 0.00 0.10 0.03 91 1004.2
20260831071552 18 157 9.7 17.7 0.00 0.10 0.03 93 1004.5
20260831070051 18 172 9.7 17.7 0.00 0.10 0.03 94 1004.5
20260831064547 17 167 11.3 25.7 0.00 0.13 0.03 94 1004.7
20260831063045 17 152 6.4 14.5 0.00 0.13 0.03 95 1004.5
20260831061544 17 159 8.0 12.9 0.00 0.13 0.03 96 1004.6
20260831060043 17 181 8.0 20.9 0.00 0.13 0.03 96 1004.6
20260831054540 17 195 6.4 19.3 0.00 0.13 0.03 96 1004.6
20260831053040 17 173 8.0 14.5 0.00 0.13 0.03 96 1004.5
20260831051540 17 159 8.0 14.5 0.03 0.13 0.03 96 1004.6
20260831050034 17 160 6.4 17.7 0.03 0.13 0.03 97 1004.6
20260831044533 17 150 6.4 14.5 0.03 0.13 0.03 97 1004.9
20260831043031 17 168 3.2 14.5 0.03 0.13 0.03 97 1004.8
20260831041602 17 146 4.8 12.9 0.00 0.10 0.00 97 1004.9
20260831040030 17 146 6.4 11.3 0.00 0.10 0.00 97 1004.9
20260831034527 16 134 1.6 4.8 0.00 0.10 0.00 97 1005.0
20260831033028 16 117 0.0 4.8 0.00 0.10 0.00 97 1005.4
20260831031522 16 117 1.6 4.8 0.00 0.10 0.00 97 1005.4
20260831030020 15 117 0.0 3.2 0.00 0.10 0.00 96 1005.5
20260831024518 15 159 1.6 6.4 0.00 0.10 0.00 96 1005.4
20260831023018 15 185 0.0 0.0 0.00 0.10 0.00 96 1005.7
20260831021525 14 185 0.0 0.0 0.00 0.10 0.00 95 1005.8
20260831020014 15 185 0.0 0.0 0.00 0.10 0.00 95 1005.8
20260831014519 14 185 0.0 0.0 0.00 0.10 0.00 95 1005.9
20260831013011 14 186 0.0 0.0 0.00 0.10 0.00 95 1005.8
20260831011517 14 185 0.0 0.0 0.00 0.10 0.00 95 1006.0
20260831010008 15 186 0.0 0.0 0.00 0.10 0.00 95 1006.0
20260831004506 15 186 0.0 0.0 0.00 0.10 0.00 95 1006.2
20260831003004 15 185 0.0 3.2 0.00 0.10 0.00 94 1006.4
20260831001503 15 185 0.0 0.0 0.00 0.10 0.00 94 1006.3
20260831000002 15 185 0.0 1.6 0.00 0.10 0.00 94 1006.5
20260830234502 15 185 0.0 1.6 0.00 0.10 0.00 94 1006.5
20260830233100 15 185 0.0 4.8 0.00 0.10 0.00 94 1006.5
20260830231559 15 175 1.6 6.4 0.00 0.10 0.00 94 1006.5
20260830224600 15 225 0.0 4.8 0.00 0.10 0.00 93 1006.6
20260830223131 15 225 3.2 4.8 0.00 0.10 0.00 93 1006.6
20260830221555 15 242 0.0 3.2 0.00 0.10 0.00 92 1006.6
20260830220050 15 246 0.0 1.6 0.00 0.10 0.00 92 1006.6
20260830214549 15 246 0.0 1.6 0.00 0.10 0.10 91 1006.5
20260830213046 15 246 0.0 1.6 0.00 0.10 0.10 90 1006.5
20260830211546 15 246 0.0 3.2 0.00 0.10 0.10 90 1006.5
20260830210046 16 246 0.0 3.2 0.00 0.10 0.10 89 1006.5
20260830204544 16 246 0.0 1.6 0.00 0.10 0.10 88 1006.5
20260830203043 16 246 0.0 6.4 0.00 0.10 0.10 88 1006.4
20260830201545 16 235 3.2 8.0 0.00 0.10 0.10 87 1006.4
20260830200041 16 258 1.6 6.4 0.00 0.10 0.10 87 1006.2
20260830194552 16 236 3.2 8.0 0.00 0.10 0.10 87 1006.2
20260830193043 17 234 4.8 11.3 0.00 0.10 0.10 86 1006.2
20260830191537 17 233 1.6 11.3 0.00 0.10 0.10 86 1006.1
20260830190036 17 268 1.6 12.9 0.00 0.10 0.10 85 1005.9
20260830184535 17 248 4.8 11.3 0.00 0.86 0.10 85 1005.8
20260830183031 17 276 3.2 12.9 0.00 0.86 0.10 85 1005.5
20260830181530 18 238 3.2 14.5 0.00 0.86 0.10 84 1005.2
20260830180028 18 208 4.8 14.5 0.00 0.86 0.10 83 1005.0
20260830174529 18 192 4.8 11.3 0.00 0.86 0.10 83 1004.8
20260830173023 19 213 8.0 19.3 0.00 0.86 0.10 82 1004.5
20260830171522 20 277 8.0 19.3 0.00 0.86 0.10 81 1004.2
20260830170021 20 257 12.9 25.7 0.00 0.86 0.10 81 1003.9
20260830164521 20 280 16.1 24.1 0.00 0.86 0.10 82 1003.7
20260830163021 20 243 14.5 33.8 0.00 0.86 0.10 81 1003.5
20260830161519 20 235 16.1 29.0 0.00 0.86 0.10 81 1003.2
20260830160019 20 288 17.7 38.6 0.00 0.86 0.10 79 1003.0
20260830154519 21 280 17.7 33.8 0.00 0.86 0.10 78 1002.8
20260830153015 21 246 11.3 30.6 0.00 0.86 0.10 81 1002.6
20260830151614 20 231 19.3 40.2 0.00 0.86 0.10 84 1002.5
20260830150014 20 191 19.3 48.3 0.00 0.86 0.10 85 1002.3
20260830144514 21 213 16.1 38.6 0.00 0.86 0.10 85 1002.1
20260830143015 21 207 20.9 45.1 0.00 0.86 0.10 84 1002.0
20260830141514 20 201 17.7 38.6 0.00 0.86 0.10 85 1001.8
20260830140011 20 219 22.5 40.2 0.00 0.86 0.10 86 1001.7
20260830134522 20 161 22.5 43.5 0.00 0.86 0.10 87 1001.5
20260830133010 21 201 19.3 37.0 0.00 0.86 0.10 86 1001.4
20260830131507 20 193 24.1 40.2 0.00 0.86 0.10 85 1001.2
20260830130011 20 229 19.3 38.6 0.00 0.86 0.10 86 1001.2
20260830124505 20 249 17.7 32.2 0.00 1.07 0.10 86 1000.9
20260830123103 20 192 20.9 37.0 0.00 1.07 0.10 86 1000.8
20260830121604 20 186 17.7 37.0 0.00 1.07 0.10 87 1000.9
20260830114601 20 194 17.7 32.2 0.00 1.09 0.10 88 1000.8
20260830113054 19 170 22.5 35.4 0.00 1.09 0.10 89 1000.7
20260830111553 18 205 19.3 43.5 0.00 1.09 0.10 90 1000.8
20260830110100 18 177 19.3 38.6 0.00 1.09 0.10 91 1000.7
20260830104551 18 159 20.9 40.2 0.00 1.09 0.10 92 1000.6
20260830103049 18 205 24.1 41.8 0.00 1.09 0.10 92 1000.5
20260830101547 18 205 20.9 35.4 0.00 1.09 0.10 93 1000.6
20260830100058 18 182 19.3 35.4 0.00 1.09 0.10 93 1000.5
20260830094545 18 180 20.9 38.6 0.03 1.09 0.10 93 1000.4